Tracking 34142 objects as of 17-May-2026
HD Live streaming from Space Station
objects crossing your sky now

BLOCK DM-SL R/B

Track BLOCK DM-SL R/B now!


NORAD ID: 29046
Int'l Code: 2006-010B
Perigee: 1,692.5 km
Apogee: 35,598.2 km
Inclination: 0.0 °
Period: 656.3 minutes
Semi major axis: 25016 km
RCS: 20.8191 m2 (large)
Launch date: April 12, 2006
Source: Sea Launch (SEAL)
Launch site: SEA LAUNCH (SEAL)

Note: This is a ROCKET BODY
Your satellite tracking list
Your tracking list is empty




NASA's NSSDC Master Catalog

Two Line Element Set (TLE):
1 29046U 06010B   26137.33697128 -.00000043  00000-0  00000-0 0  9994
2 29046   0.0450  82.8068 6776705  78.4565 246.6447  2.19415596161112
Source of the keplerian elements: AFSPC